Location: Mauries
(43.6188°N, 0.3322°W)
Time: 19:49:22
(UTC+00:00)

NOSS 2-2 (C) - Pass Details

Date: 14 January 2026
Orbit: 379 x 1692 km, 63.3° (Epoch: 11 February)

Event Time Altitude Azimuth Distance (km) Brightness Sun altitude
Rises 06:58:00 0° 202° (SSW) 2,703 6.9 -6.4°
Reaches altitude 10° 07:00:27 10° 195° (SSW) 1,662 5.9 -6.0°
Maximum altitude 07:03:50 42° 123° (ESE) 615 4.3 -5.4°
Drops below altitude 10° 07:06:44 10° 51° (NE) 1,426 5.8 -4.9°
Sets 07:08:42 0° 43° (NE) 2,260 6.7 -4.6°
